Weather in Žagarė

Lithuania     56°21′45″N   23°15′29″E
temp.,
°C
wind,
m/s
gust,
m/s
humid.,
%
clouds,
%
prec.,
mm/h
press.,
hPa
HPBL,
m
27 february, sat
sat2723:00+2wnw510910 0.0 1015282
02:00+3wnw6149050 0.0 1017502
05:00+1nw6148827 0.0 1017530
08:00+1nw6138813 0.0 1021512
11:00+4nnw711750 0.0 1023891
14:00+5nnw711670 0.0 10251116
17:00+4nw511700 0.0 1026580
20:00+1nw411840 0.0 1027327
28 february, sun
sun2823:000wnw599260 0.0 1028278
02:00+1wnw598880 0.0 1028304
05:00+2w6128494 0.0 1026360
08:00+3wnw8158097 0.0 1025453
11:00+6nw6137792 0.0 10241018
14:00+4nw5128996 0.6 1025632
17:00+5nw598591 0.0 1025410
20:00+2nw489352 0.0 1027208
1 march, mon
mon123:00+1wnw35940 0.0 1028113
02:00+1wnw36940 0.0 1029145
05:00+1wnw48940 0.0 1029171
08:00+1w48920 0.0 1030173
11:00+6w58770 0.0 1029365
14:00+9wsw6126711 0.0 1027580
17:00+7w8156930 0.0 1025598
20:00+3w6118921 0.0 1026355
2 march, tue
tue223:00+2wnw48932 0.0 1027225
02:00+1wnw36921 0.0 1028121
05:00+1w478844 0.0 1027143
08:00+2w598529 0.0 1027209
11:00+6w58720 0.0 1027266
14:00+9wnw58630 0.0 1027586
17:00+7wnw48720 0.0 1027259
20:00+4wnw35860 0.0 1027109
3 march, wed
wed323:00+2wnw34890 0.0 102886
02:00+1wnw34900 0.0 102874
05:00+1wnw34910 0.0 102870
08:00+1w35916 0.0 1028108
11:00+5w34790 0.0 1027258
14:00+8wsw23680 0.0 1026500
17:00+6sw46770 0.0 1024344
20:00+2wsw489110 0.0 1022405